SWQ04 YPDN-AYPY

Flight info

Callsign SWQ04
Flight time N/A
Altitude 35000
Route DN DCT VANDI DCT MASRA B598 ESKIM DCT GUMBU DCT PY
Aircraft B738/M-SDE2E3FGHIRWXY/LB1

Departure

Time 2026-04-22 08:57
Airport Darwin International Airport / RAAF Darwin (YPDN)

Arrival

Time N/A
Airport Port Moresby Jacksons International Airport (AYPY)
Time Latitude Longitude Altitude Speed Heading
2026-04-22 08:43 -12.40987 130.88052 92 ft 0 kts 19°
2026-04-22 08:53 -12.40981 130.88052 93 ft 5 kts 359°
2026-04-22 08:53 -12.40965 130.87997 92 ft 14 kts 231°
2026-04-22 08:54 -12.40992 130.87882 94 ft 19 kts 279°
2026-04-22 08:54 -12.40961 130.87729 94 ft 25 kts 282°
2026-04-22 08:54 -12.41048 130.87586 96 ft 27 kts 202°
2026-04-22 08:54 -12.41055 130.87444 100 ft 25 kts 290°
2026-04-22 08:55 -12.40994 130.87264 98 ft 28 kts 288°
2026-04-22 08:55 -12.40956 130.87092 95 ft 20 kts 238°
2026-04-22 08:55 -12.41082 130.87063 100 ft 18 kts 181°
2026-04-22 08:55 -12.41132 130.87104 100 ft 0 kts 109°
2026-04-22 08:56 -12.41205 130.87330 99 ft 75 kts 108°
2026-04-22 08:56 -12.41451 130.88090 94 ft 148 kts 110°
2026-04-22 08:56 -12.41897 130.89218 412 ft 184 kts 109°
2026-04-22 08:57 -12.42405 130.90432 1392 ft 186 kts 116°
2026-04-22 08:57 -12.42619 130.91737 1994 ft 191 kts 78°
2026-04-22 08:57 -12.42209 130.93119 2201 ft 214 kts 79°
2026-04-22 08:57 -12.41978 130.94674 2516 ft 230 kts 85°
2026-04-22 08:58 -12.41804 130.96341 2900 ft 245 kts 85°
2026-04-22 08:58 -12.41635 130.98105 3499 ft 252 kts 86°
2026-04-22 08:58 -12.41467 130.99902 4323 ft 254 kts 86°
2026-04-22 08:58 -12.41300 131.01706 5170 ft 255 kts 86°
2026-04-22 08:59 -12.41133 131.03521 5978 ft 258 kts 86°
2026-04-22 08:59 -12.40965 131.05356 6754 ft 261 kts 86°
2026-04-22 08:59 -12.40794 131.07223 7456 ft 265 kts 85°
2026-04-22 08:59 -12.40621 131.09118 8163 ft 270 kts 85°
2026-04-22 09:00 -12.40444 131.11046 8874 ft 274 kts 85°
2026-04-22 09:00 -12.40265 131.13007 9581 ft 279 kts 84°
2026-04-22 09:00 -12.40083 131.14992 10283 ft 282 kts 85°
2026-04-22 09:00 -12.39896 131.17037 10524 ft 304 kts 84°
2026-04-22 09:01 -12.39692 131.19265 10689 ft 326 kts 85°
2026-04-22 09:01 -12.39475 131.21634 10983 ft 341 kts 85°
2026-04-22 09:01 -12.39252 131.24073 11495 ft 347 kts 84°
2026-04-22 09:01 -12.39025 131.26543 12133 ft 350 kts 84°
2026-04-22 09:02 -12.38797 131.29034 12716 ft 354 kts 84°
2026-04-22 09:02 -12.38565 131.31553 13350 ft 357 kts 85°
2026-04-22 09:02 -12.38332 131.34093 13899 ft 361 kts 85°
2026-04-22 09:02 -12.38094 131.36675 14362 ft 366 kts 85°
2026-04-22 09:03 -12.37855 131.39267 14979 ft 366 kts 85°
2026-04-22 09:03 -12.37615 131.41876 15490 ft 370 kts 85°
2026-04-22 09:03 -12.37374 131.44495 16061 ft 371 kts 85°
2026-04-22 09:03 -12.37129 131.47139 16572 ft 375 kts 85°
2026-04-22 09:04 -12.36884 131.49775 17006 ft 380 kts 85°
2026-04-22 09:04 -12.36636 131.52475 17475 ft 383 kts 86°
2026-04-22 09:04 -12.36384 131.55199 17967 ft 386 kts 86°
2026-04-22 09:04 -12.36128 131.57949 18399 ft 389 kts 86°
2026-04-22 09:05 -12.35869 131.60703 18897 ft 389 kts 85°
2026-04-22 09:05 -12.35613 131.63471 19249 ft 394 kts 85°
2026-04-22 09:05 -12.35351 131.66283 19571 ft 399 kts 86°
2026-04-22 09:05 -12.35087 131.69120 19942 ft 403 kts 85°
2026-04-22 09:06 -12.34819 131.71983 20297 ft 406 kts 85°
2026-04-22 09:06 -12.34546 131.74872 20690 ft 409 kts 84°
2026-04-22 09:06 -12.34070 131.77760 20997 ft 415 kts 78°
2026-04-22 09:06 -12.33400 131.80641 21398 ft 416 kts 77°
2026-04-22 09:07 -12.32686 131.83517 21782 ft 419 kts 76°
2026-04-22 09:07 -12.31959 131.86426 22138 ft 422 kts 77°
2026-04-22 09:07 -12.31252 131.89303 22458 ft 425 kts 77°
2026-04-22 09:07 -12.30540 131.92250 22786 ft 428 kts 77°
2026-04-22 09:08 -12.29832 131.95216 23122 ft 431 kts 77°
2026-04-22 09:08 -12.29125 131.98201 23441 ft 434 kts 77°
2026-04-22 09:08 -12.28417 132.01208 23745 ft 435 kts 77°
2026-04-22 09:08 -12.27707 132.04221 24059 ft 436 kts 77°
2026-04-22 09:09 -12.26993 132.07247 24304 ft 439 kts 77°
2026-04-22 09:09 -12.26275 132.10288 24577 ft 441 kts 77°
2026-04-22 09:09 -12.25555 132.13333 24848 ft 443 kts 77°
2026-04-22 09:09 -12.24827 132.16412 25129 ft 445 kts 77°
2026-04-22 09:10 -12.24097 132.19500 25348 ft 448 kts 77°
2026-04-22 09:10 -12.23365 132.22592 25668 ft 448 kts 77°
2026-04-22 09:10 -12.22644 132.25690 25943 ft 449 kts 79°
2026-04-22 09:10 -12.22082 132.28839 26177 ft 451 kts 81°
2026-04-22 09:11 -12.21602 132.32016 26388 ft 454 kts 83°
2026-04-22 09:11 -12.21154 132.35210 26650 ft 455 kts 83°
2026-04-22 09:11 -12.20714 132.38380 26889 ft 457 kts 82°
2026-04-22 09:11 -12.20255 132.41639 27145 ft 458 kts 84°
2026-04-22 09:12 -12.19795 132.44829 27362 ft 461 kts 82°
2026-04-22 09:12 -12.19319 132.48076 27618 ft 462 kts 83°
2026-04-22 09:12 -12.18840 132.51325 27815 ft 464 kts 82°
2026-04-22 09:12 -12.18355 132.54589 28047 ft 466 kts 83°
2026-04-22 09:13 -12.17865 132.57869 28237 ft 468 kts 82°
2026-04-22 09:13 -12.17372 132.61163 28480 ft 469 kts 83°
2026-04-22 09:13 -12.16880 132.64459 28733 ft 469 kts 82°
2026-04-22 09:13 -12.16385 132.67762 28973 ft 470 kts 83°
2026-04-22 09:14 -12.15886 132.71079 29136 ft 473 kts 82°
2026-04-22 09:14 -12.15384 132.74410 29325 ft 475 kts 82°
2026-04-22 09:14 -12.14883 132.77742 29568 ft 475 kts 83°
2026-04-22 09:14 -12.14381 132.81075 29865 ft 474 kts 83°
2026-04-22 09:15 -12.13881 132.84403 30106 ft 474 kts 82°
2026-04-22 09:15 -12.13378 132.87745 30261 ft 476 kts 82°
2026-04-22 09:15 -12.12873 132.91093 30472 ft 477 kts 82°
2026-04-22 09:15 -12.12368 132.94440 30754 ft 475 kts 82°
2026-04-22 09:16 -12.11871 132.97734 31025 ft 474 kts 82°
2026-04-22 09:16 -12.11367 133.01064 31260 ft 474 kts 82°
2026-04-22 09:16 -12.10862 133.04402 31495 ft 475 kts 82°
2026-04-22 09:16 -12.10358 133.07734 31746 ft 474 kts 82°
2026-04-22 09:17 -12.10024 133.09938 31932 ft 474 kts 82°
2026-04-22 09:17 -12.09350 133.14387 32286 ft 473 kts 82°
2026-04-22 09:17 -12.08846 133.17704 32544 ft 472 kts 82°
2026-04-22 09:17 -12.08343 133.21021 32784 ft 472 kts 81°
2026-04-22 09:18 -12.07838 133.24340 33046 ft 472 kts 82°
2026-04-22 09:18 -12.07334 133.27659 33289 ft 472 kts 81°
2026-04-22 09:18 -12.06830 133.30966 33604 ft 470 kts 82°
2026-04-22 09:18 -12.06327 133.34271 33854 ft 470 kts 81°
2026-04-22 09:19 -12.05824 133.37564 34090 ft 470 kts 81°
2026-04-22 09:19 -12.05327 133.40826 34303 ft 469 kts 81°
2026-04-22 09:19 -12.04824 133.44117 34544 ft 468 kts 82°
2026-04-22 09:19 -12.04322 133.47404 34741 ft 468 kts 81°
2026-04-22 09:20 -12.03820 133.50681 34926 ft 466 kts 81°
2026-04-22 09:20 -12.02815 133.57247 34909 ft 468 kts 81°
2026-04-22 09:21 -12.01807 133.63822 34917 ft 468 kts 81°
2026-04-22 09:21 -12.00798 133.70389 34914 ft 468 kts 81°
2026-04-22 09:22 -11.99787 133.76953 34917 ft 467 kts 81°
2026-04-22 09:22 -11.98777 133.83507 34917 ft 467 kts 81°
2026-04-22 09:23 -11.97772 133.90018 34913 ft 466 kts 81°
2026-04-22 09:23 -11.96761 133.96558 34917 ft 466 kts 81°
2026-04-22 09:24 -11.95749 134.03097 34913 ft 465 kts 81°
2026-04-22 09:24 -11.94736 134.09631 34914 ft 465 kts 81°
2026-04-22 09:25 -11.93730 134.16170 34914 ft 466 kts 81°
2026-04-22 09:25 -11.92750 134.22666 34912 ft 466 kts 81°
2026-04-22 09:26 -11.91761 134.29226 34915 ft 467 kts 81°
2026-04-22 09:26 -11.90766 134.35797 34917 ft 469 kts 81°
2026-04-22 09:27 -11.89765 134.42392 34910 ft 471 kts 81°
2026-04-22 09:27 -11.88758 134.49007 34912 ft 472 kts 81°
2026-04-22 09:28 -11.87747 134.55642 34917 ft 473 kts 81°
2026-04-22 09:28 -11.86731 134.62298 34916 ft 474 kts 81°
2026-04-22 09:29 -11.85715 134.68947 34913 ft 474 kts 81°
2026-04-22 09:29 -11.84701 134.75565 34913 ft 474 kts 81°
2026-04-22 09:30 -11.83682 134.82208 34910 ft 473 kts 81°
2026-04-22 09:30 -11.82663 134.88842 34912 ft 472 kts 81°
2026-04-22 09:31 -11.81645 134.95460 34913 ft 472 kts 81°
2026-04-22 09:31 -11.80627 135.02070 34906 ft 471 kts 81°
2026-04-22 09:32 -11.79609 135.08666 34909 ft 470 kts 81°
2026-04-22 09:32 -11.78595 135.15227 34909 ft 470 kts 81°
2026-04-22 09:33 -11.77574 135.21817 34908 ft 470 kts 81°
2026-04-22 09:33 -11.76717 135.27348 34905 ft 471 kts 82°
2026-04-22 09:34 -11.75698 135.33911 34915 ft 471 kts 81°
2026-04-22 09:34 -11.74671 135.40520 34913 ft 472 kts 81°
2026-04-22 09:35 -11.73120 135.50472 34920 ft 474 kts 81°
2026-04-22 09:35 -11.72082 135.57117 34919 ft 474 kts 81°
2026-04-22 09:36 -11.71042 135.63771 34915 ft 475 kts 81°
2026-04-22 09:36 -11.70000 135.70425 34917 ft 474 kts 81°
2026-04-22 09:37 -11.68958 135.77068 34918 ft 473 kts 81°
2026-04-22 09:37 -11.67924 135.83650 34915 ft 472 kts 81°
2026-04-22 09:38 -11.66884 135.90264 34910 ft 471 kts 81°
2026-04-22 09:38 -11.65845 135.96860 34910 ft 470 kts 81°
2026-04-22 09:39 -11.64808 136.03434 34910 ft 469 kts 81°
2026-04-22 09:39 -11.63769 136.10007 34911 ft 469 kts 81°
2026-04-22 09:40 -11.62729 136.16575 34909 ft 469 kts 81°
2026-04-22 09:40 -11.61690 136.23136 34906 ft 469 kts 81°
2026-04-22 09:41 -11.60648 136.29700 34912 ft 469 kts 81°
2026-04-22 09:41 -11.59611 136.36231 34912 ft 470 kts 81°
2026-04-22 09:42 -11.58562 136.42813 34912 ft 471 kts 81°
2026-04-22 09:42 -11.57510 136.49407 34913 ft 471 kts 80°
2026-04-22 09:43 -11.56459 136.55994 34909 ft 471 kts 80°
2026-04-22 09:43 -11.55404 136.62592 34910 ft 471 kts 80°
2026-04-22 09:44 -11.54349 136.69189 34909 ft 471 kts 80°
2026-04-22 09:44 -11.53298 136.75743 34909 ft 471 kts 80°
2026-04-22 09:45 -11.52241 136.82333 34913 ft 470 kts 79°
2026-04-22 09:45 -11.51178 136.88910 34916 ft 467 kts 80°
2026-04-22 09:46 -11.50133 136.95425 34909 ft 463 kts 80°
2026-04-22 09:46 -11.49095 137.01877 34915 ft 461 kts 80°
2026-04-22 09:47 -11.48046 137.08367 34923 ft 467 kts 79°
2026-04-22 09:47 -11.46984 137.14939 34923 ft 473 kts 80°
2026-04-22 09:48 -11.45919 137.21526 34920 ft 471 kts 80°
2026-04-22 09:48 -11.44853 137.28083 34919 ft 466 kts 79°
2026-04-22 09:49 -11.43796 137.34588 34918 ft 463 kts 79°
2026-04-22 09:49 -11.42744 137.41059 34922 ft 463 kts 80°
2026-04-22 09:50 -11.41682 137.47578 34927 ft 469 kts 80°
2026-04-22 09:50 -11.40605 137.54171 34928 ft 474 kts 79°
2026-04-22 09:51 -11.39530 137.60772 34904 ft 465 kts 79°
2026-04-22 09:51 -11.38481 137.67185 34918 ft 459 kts 79°
2026-04-22 09:52 -11.37428 137.73613 34917 ft 460 kts 78°
2026-04-22 09:52 -11.36371 137.80044 34920 ft 460 kts 79°
2026-04-22 09:53 -11.35308 137.86494 34919 ft 462 kts 78°
2026-04-22 09:53 -11.34247 137.92961 34922 ft 463 kts 78°
2026-04-22 09:54 -11.33179 137.99454 34921 ft 465 kts 79°
2026-04-22 09:54 -11.32100 138.05971 34921 ft 467 kts 79°
2026-04-22 09:55 -11.31023 138.12512 34914 ft 469 kts 78°
2026-04-22 09:55 -11.29948 138.19014 34918 ft 469 kts 78°
2026-04-22 09:56 -11.28866 138.25560 34917 ft 468 kts 80°
2026-04-22 09:56 -11.27775 138.32100 34911 ft 467 kts 77°
2026-04-22 09:57 -11.26696 138.38615 34911 ft 466 kts 79°
2026-04-22 09:57 -11.25616 138.45115 34910 ft 464 kts 79°
2026-04-22 09:58 -11.24539 138.51583 34915 ft 461 kts 77°
2026-04-22 09:58 -11.23474 138.57966 34915 ft 459 kts 78°
2026-04-22 09:59 -11.22402 138.64365 34917 ft 457 kts 78°
2026-04-22 09:59 -11.21335 138.70741 34907 ft 457 kts 78°
2026-04-22 10:00 -11.20267 138.77126 34916 ft 457 kts 78°
2026-04-22 10:00 -11.19196 138.83515 34914 ft 458 kts 78°
2026-04-22 10:01 -11.18117 138.89924 34916 ft 460 kts 78°
2026-04-22 10:01 -11.17036 138.96363 34925 ft 462 kts 78°
2026-04-22 10:02 -11.15953 139.02792 34909 ft 465 kts 79°
2026-04-22 10:02 -11.14858 139.09286 34918 ft 466 kts 78°
2026-04-22 10:03 -11.13755 139.15812 34919 ft 468 kts 78°
2026-04-22 10:03 -11.12653 139.22346 34911 ft 469 kts 78°
2026-04-22 10:04 -11.11547 139.28889 34914 ft 469 kts 77°
2026-04-22 10:04 -11.10435 139.35432 34915 ft 468 kts 79°
2026-04-22 10:05 -11.09328 139.41964 34916 ft 467 kts 77°
2026-04-22 10:05 -11.08220 139.48480 34917 ft 466 kts 79°
2026-04-22 10:06 -11.07115 139.54979 34920 ft 465 kts 78°
2026-04-22 10:06 -11.06010 139.61463 34914 ft 464 kts 78°
2026-04-22 10:07 -11.04913 139.67897 34917 ft 464 kts 78°
2026-04-22 10:07 -11.03805 139.74373 34918 ft 464 kts 79°
2026-04-22 10:08 -11.02697 139.80847 34917 ft 464 kts 78°
2026-04-22 10:08 -11.01588 139.87322 34918 ft 465 kts 78°
2026-04-22 10:09 -11.00476 139.93805 34918 ft 465 kts 78°
2026-04-22 10:09 -10.99359 140.00305 34918 ft 466 kts 78°
2026-04-22 10:10 -10.98240 140.06813 34917 ft 467 kts 78°
2026-04-22 10:10 -10.97117 140.13333 34919 ft 468 kts 79°
2026-04-22 10:11 -10.95993 140.19852 34930 ft 468 kts 79°
2026-04-22 10:11 -10.94868 140.26383 34925 ft 468 kts 79°
2026-04-22 10:12 -10.93742 140.32917 34921 ft 469 kts 79°
2026-04-22 10:12 -10.92609 140.39456 34923 ft 469 kts 78°
2026-04-22 10:13 -10.91486 140.45963 34921 ft 470 kts 79°
2026-04-22 10:13 -10.90353 140.52519 34925 ft 470 kts 78°
2026-04-22 10:14 -10.89217 140.59071 34924 ft 470 kts 79°
2026-04-22 10:14 -10.88081 140.65626 34925 ft 471 kts 79°
2026-04-22 10:15 -10.86940 140.72197 34927 ft 471 kts 79°
2026-04-22 10:15 -10.85795 140.78773 34926 ft 472 kts 78°
2026-04-22 10:16 -10.84649 140.85361 34922 ft 473 kts 79°
2026-04-22 10:16 -10.83496 140.91957 34930 ft 474 kts 78°
2026-04-22 10:17 -10.82341 140.98558 34928 ft 474 kts 78°
2026-04-22 10:17 -10.81194 141.05126 34924 ft 474 kts 79°
2026-04-22 10:18 -10.80039 141.11730 34933 ft 474 kts 79°
2026-04-22 10:18 -10.78875 141.18341 34931 ft 474 kts 79°
2026-04-22 10:19 -10.77713 141.24954 34928 ft 475 kts 79°
2026-04-22 10:19 -10.76554 141.31560 34933 ft 474 kts 78°
2026-04-22 10:20 -10.75395 141.38138 34945 ft 475 kts 79°
2026-04-22 10:20 -10.74229 141.44754 34938 ft 475 kts 79°
2026-04-22 10:21 -10.73260 141.50256 34933 ft 475 kts 79°
2026-04-22 10:21 -10.72091 141.56872 34932 ft 475 kts 79°
2026-04-22 10:22 -10.70921 141.63488 34930 ft 476 kts 79°
2026-04-22 10:22 -10.69748 141.70115 34931 ft 475 kts 79°
2026-04-22 10:23 -10.68573 141.76738 34930 ft 475 kts 79°
2026-04-22 10:23 -10.67405 141.83310 34931 ft 475 kts 79°
2026-04-22 10:24 -10.66229 141.89924 34934 ft 475 kts 79°
2026-04-22 10:24 -10.65055 141.96523 34937 ft 475 kts 79°
2026-04-22 10:25 -10.63877 142.03133 34932 ft 475 kts 79°
2026-04-22 10:25 -10.62700 142.09733 34936 ft 474 kts 80°
2026-04-22 10:26 -10.61523 142.16319 34937 ft 473 kts 80°
2026-04-22 10:26 -10.60348 142.22887 34934 ft 472 kts 80°
2026-04-22 10:27 -10.59173 142.29447 34937 ft 471 kts 79°
2026-04-22 10:27 -10.57829 142.35922 34936 ft 471 kts 77°
2026-04-22 10:28 -10.56338 142.42399 34938 ft 471 kts 77°
2026-04-22 10:28 -10.54856 142.48883 34937 ft 471 kts 77°
2026-04-22 10:29 -10.53398 142.55381 34932 ft 472 kts 77°
2026-04-22 10:29 -10.51946 142.61902 34941 ft 474 kts 77°
2026-04-22 10:30 -10.50489 142.68445 34941 ft 475 kts 77°
2026-04-22 10:30 -10.49041 142.74933 34944 ft 473 kts 77°
2026-04-22 10:31 -10.47582 142.81461 34950 ft 474 kts 77°
2026-04-22 10:31 -10.46118 142.88007 34946 ft 476 kts 77°
2026-04-22 10:32 -10.44646 142.94577 34951 ft 478 kts 77°
2026-04-22 10:32 -10.43169 143.01166 34953 ft 479 kts 77°
2026-04-22 10:33 -10.41689 143.07763 34947 ft 477 kts 77°
2026-04-22 10:33 -10.40219 143.14311 34941 ft 473 kts 77°
2026-04-22 10:34 -10.38770 143.20760 34939 ft 471 kts 77°
2026-04-22 10:34 -10.37307 143.27257 34939 ft 471 kts 77°
2026-04-22 10:35 -10.35841 143.33761 34942 ft 472 kts 77°
2026-04-22 10:35 -10.34367 143.40301 34941 ft 476 kts 77°
2026-04-22 10:36 -10.32880 143.46887 34938 ft 480 kts 77°
2026-04-22 10:36 -10.31387 143.53497 34930 ft 478 kts 77°
2026-04-22 10:37 -10.29171 143.63295 34938 ft 469 kts 77°
2026-04-22 10:38 -10.27723 143.69686 34942 ft 466 kts 77°
2026-04-22 10:38 -10.26265 143.76117 34940 ft 470 kts 77°
2026-04-22 10:39 -10.24788 143.82628 34944 ft 476 kts 77°
2026-04-22 10:39 -10.23294 143.89207 34944 ft 480 kts 77°
2026-04-22 10:40 -10.21791 143.95804 34940 ft 479 kts 77°
2026-04-22 10:40 -10.20280 144.02392 34940 ft 478 kts 77°
2026-04-22 10:41 -10.18771 144.08955 34937 ft 475 kts 77°
2026-04-22 10:41 -10.17271 144.15479 34936 ft 474 kts 77°
2026-04-22 10:42 -10.15782 144.21949 34932 ft 473 kts 77°
2026-04-22 10:42 -10.14288 144.28437 34934 ft 471 kts 77°
2026-04-22 10:43 -10.12793 144.34926 34939 ft 473 kts 77°
2026-04-22 10:43 -10.11289 144.41446 34936 ft 476 kts 77°
2026-04-22 10:44 -10.09772 144.48018 34927 ft 478 kts 77°
2026-04-22 10:44 -10.08252 144.54592 34926 ft 478 kts 77°
2026-04-22 10:45 -10.06742 144.61122 34923 ft 477 kts 77°
2026-04-22 10:45 -10.05231 144.67647 34916 ft 473 kts 77°
2026-04-22 10:46 -10.03732 144.74116 34916 ft 470 kts 77°
2026-04-22 10:46 -10.02234 144.80572 34921 ft 470 kts 76°
2026-04-22 10:47 -10.00735 144.87029 34914 ft 471 kts 77°
2026-04-22 10:47 -9.99229 144.93511 34918 ft 474 kts 77°
2026-04-22 10:48 -9.97710 145.00039 34922 ft 476 kts 77°
2026-04-22 10:48 -9.96194 145.06548 34922 ft 478 kts 76°
2026-04-22 10:49 -9.94664 145.13115 34922 ft 477 kts 76°
2026-04-22 10:49 -9.93171 145.19521 34903 ft 452 kts 77°
2026-04-22 10:49 -9.92459 145.22569 34901 ft 437 kts 77°
2026-04-22 10:50 -9.91769 145.25525 34896 ft 424 kts 77°
2026-04-22 10:50 -9.90433 145.31241 34905 ft 412 kts 76°
2026-04-22 10:51 -9.89107 145.36908 34918 ft 416 kts 77°
2026-04-22 10:51 -9.87759 145.42667 34920 ft 423 kts 77°
2026-04-22 10:52 -9.86394 145.48497 34917 ft 427 kts 76°
2026-04-22 10:52 -9.85023 145.54350 34912 ft 426 kts 76°
2026-04-22 10:53 -9.83654 145.60182 34905 ft 423 kts 76°
2026-04-22 10:53 -9.82297 145.65958 34913 ft 418 kts 76°
2026-04-22 10:54 -9.80948 145.71702 34920 ft 419 kts 76°
2026-04-22 10:54 -9.79598 145.77444 34927 ft 423 kts 76°
2026-04-22 10:55 -9.78226 145.83273 34929 ft 425 kts 76°